Stations météo

réclame
Mon MeteoGroup
Montelimar, France (7577): Température de l'air & dewpoint: 13.11.2019 02:00:00 - 19.11.2019 02:00:00 (CET)Montelimar, France (7577): Température de l'air 5cm: 13.11.2019 02:00:00 - 19.11.2019 02:00:00 (CET)Montelimar, France (7577): Température de l'air -20cm & Température de l'air -100cm: 13.11.2019 02:00:00 - 19.11.2019 02:00:00 (CET)Montelimar, France (7577): Vitesse du vent & gusts: 13.11.2019 02:00:00 - 19.11.2019 02:00:00 (CET)Montelimar, France (7577): Direction du vent: 13.11.2019 02:00:00 - 19.11.2019 02:00:00 (CET)Montelimar, France (7577): reduced air pressure: 13.11.2019 02:00:00 - 19.11.2019 02:00:00 (CET)Montelimar, France (7577): visibility: 13.11.2019 02:00:00 - 19.11.2019 02:00:00 (CET)Montelimar, France (7577): Ensoleillement: 13.11.2019 02:00:00 - 19.11.2019 02:00:00 (CET)Montelimar, France (7577): Quantités de précipitations: 13.11.2019 02:00:00 - 19.11.2019 02:00:00 (CET)
Date & Time tt [°C] td [°C] tt 5cm [°C] tt -20cm [°C] tt -100cm [°C] ff [km/h] ff [knt] fx [km/h] fx [knt] dd ppp [hPa] vv [km] sd [min] rr [mm]
19.11.2019 02:00:00 5,8 0,1 3,9 8,6 12,7 19 10 43 23 NNE 1014,2 20 0 0,0
19.11.2019 01:00:00 5,2 -0,6 4,1 8,6 12,7 16 8 35 19 NE 1014,7 20 0 0,0
19.11.2019 00:00:00 6,5 -0,7 5,5 8,6 12,7 22 12 48 26 NNE 1014,9 20 0 0,0
18.11.2019 23:00:00 6,4 0,1 5,4 8,6 12,8 23 12 44 24 N 1015,0 20 0 0,0
18.11.2019 22:00:00 6,6 0,7 5,7 8,6 12,7 23 13 42 23 N 1014,8 20 0 0,0
18.11.2019 21:00:00 7,1 1,6 5,9 8,6 12,8 20 11 40 21 N 1014,5 20 0 0,0
18.11.2019 20:00:00 7,3 1,8 6,3 8,6 12,8 21 11 45 24 NNE 1014,4 20 0 0,0
18.11.2019 19:00:00 7,4 1,5 6,0 8,5 12,8 19 10 36 20 N 1013,8 20 0 0,0
18.11.2019 18:00:00 7,5 1,1 6,2 8,4 12,8 16 9 31 17 N 1013,9 20 0 0,0
18.11.2019 17:00:00 7,9 1,7 7,0 8,3 12,8 19 11 46 25 NNE 1013,7 20 21 0,0
18.11.2019 16:00:00 8,6 2,2 9,8 8,2 12,8 24 13 45 24 NNE 1013,0 20 60 0,0
18.11.2019 15:00:00 9,1 2,4 12,2 8,1 12,8 23 13 44 24 N 1012,6 20 60 0,0
18.11.2019 14:00:00 9,2 3,0 12,1 8,1 12,8 23 13 41 22 NNE 1012,5 20 60 0,0
18.11.2019 13:00:00 8,8 2,8 11,6 8,1 12,9 24 13 48 26 NNE 1012,3 20 60 0,0
18.11.2019 12:00:00 8,1 2,5 10,0 8,0 12,8 26 14 45 24 N 1012,4 20 60 0,0
18.11.2019 11:00:00 6,9 3,0 8,9 8,1 12,9 22 12 40 22 NNE 1013,2 20 60 0,0
18.11.2019 10:00:00 6,4 2,3 6,5 8,1 12,9 16 9 33 18 N 1012,4 19 60 0,0
18.11.2019 09:00:00 4,4 1,9 2,4 8,2 12,9 15 8 31 17 N 1012,1 20 36 0,0
18.11.2019 08:00:00 3,3 1,0 1,5 8,2 12,9 19 10 32 17 N 1011,7 19 0 0,0
18.11.2019 07:00:00 2,8 0,7 1,3 8,3 12,9 13 7 22 12 NE 1011,8 20 0 0,0
18.11.2019 06:00:00 2,4 0,9 1,3 8,3 12,9 14 8 26 14 NNE 1011,4 14 0 0,0
18.11.2019 05:00:00 1,9 0,7 1,0 8,4 12,9 16 9 27 15 N 1011,0 10 0 0,0
18.11.2019 04:00:00 1,8 0,9 1,0 8,5 12,9 16 9 26 14 N 1010,5 2,5 0 0,0
18.11.2019 03:00:00 2,0 1,0 1,2 8,5 12,9 15 8 25 14 N 1010,5 1,1 0 0,0
18.11.2019 02:00:00 2,5 1,0 1,4 8,6 13,0 15 8 25 14 N 1010,2 7 0 0,0
18.11.2019 01:00:00 2,8 1,2 0,7 8,6 13,0 13 7 22 12 N 1009,9 9 0 0,0
18.11.2019 00:00:00 2,5 0,9 1,0 8,6 13,0 8 4 16 9 NE 1009,9 7 0 0,0
17.11.2019 23:00:00 3,0 1,2 1,8 8,6 13,0 10 5 18 10 N 1009,5 8 0 0,0
17.11.2019 22:00:00 3,5 1,9 1,0 8,7 13,0 9 5 16 8 N 1009,4 9 0 0,0
17.11.2019 21:00:00 3,1 1,3 -0,7 8,7 13,0 5 3 12 6 N 1009,5 9 0 0,0
17.11.2019 20:00:00 2,4 0,0 -0,8 8,7 13,0 2 1 8 4 N 1009,4 10 0 0,0
17.11.2019 19:00:00 3,6 0,5 1,5 8,6 13,0 6 3 18 10 NE 1008,9 15 0 0,0
17.11.2019 18:00:00 5,1 1,2 4,0 8,6 13,0 10 5 18 10 NNW 1008,5 20 0 0,0
17.11.2019 17:00:00 5,7 1,8 5,6 8,5 13,0 9 5 21 11 N 1008,0 20 29 0,0
17.11.2019 16:00:00 5,9 2,0 5,9 8,4 13,1 13 7 21 11 NNE 1007,6 20 0 0,0
17.11.2019 15:00:00 6,2 1,7 6,6 8,4 13,1 11 6 23 13 NNE 1007,3 20 0 0,0
17.11.2019 14:00:00 6,6 1,9 7,7 8,3 13,0 15 8 28 15 NNE 1006,7 20 6 0,0
17.11.2019 13:00:00 6,5 2,4 8,7 8,3 13,1 16 9 34 19 NNE 1006,6 20 60 0,0
17.11.2019 12:00:00 4,7 2,2 7,8 8,3 13,1 17 9 29 16 NNE 1007,0 17 57 0,0
17.11.2019 11:00:00 3,1 2,1 3,0 8,3 13,1 13 7 25 14 NNE 1007,4 10 55 0,0
17.11.2019 10:00:00 1,5 0,8 2,0 8,4 13,1 10 5 30 16 NNE 1007,5 2,4 26 0,0
17.11.2019 09:00:00 0,7 0,0 0,3 8,5 13,1 19 11 34 18 NNE 1007,4 1,9 26 0,0
17.11.2019 08:00:00 0,1 -0,8 0,2 8,5 13,1 19 10 32 17 NNE 1007,3 3,8 0 0,0
17.11.2019 07:00:00 0,4 -0,3 0,3 8,6 13,2 6 3 28 15 NNE 1007,2 11 0 0,0
17.11.2019 06:00:00 0,6 -0,1 0,4 8,6 13,2 15 8 27 15 NNE 1007,3 0,9 0 0,0
17.11.2019 05:00:00 0,6 -0,1 0,7 8,6 13,2 16 9 30 16 NNE 1007,9 0,6 0 0,0
17.11.2019 04:00:00 0,9 0,2 0,9 8,7 13,2 17 9 28 15 N 1008,2 5 0 0,0
17.11.2019 03:00:00 1,2 0,5 1,2 8,7 13,2 12 7 23 12 NNE 1008,3 0,9 0 0,0
17.11.2019 02:00:00 1,0 0,3 1,0 8,8 13,2 12 7 21 11 NNE 1008,7 0,5 0 0,0
17.11.2019 01:00:00 1,2 0,3 1,1 8,8 13,2 9 5 15 8 NNE 1009,6 0,2 0 0,0
17.11.2019 00:00:00 1,6 0,7 1,5 8,8 13,2 4 2 16 9 NNW 1010,5 0,7 0 0,0
16.11.2019 23:00:00 2,1 1,2 1,1 8,9 13,3 8 5 23 12 N 1010,8 0,3 0 0,0
16.11.2019 22:00:00 2,4 1,2 -0,9 8,9 13,3 8 4 12 7 N 1011,2 16 0 0,0
16.11.2019 21:00:00 1,9 -0,2 -0,9 8,9 13,3 4 2 8 4 NE 1011,2 4,1 0 0,0
16.11.2019 20:00:00 2,9 1,1 -0,4 8,8 13,3 4 2 8 4 ENE 1011,1 19 0 0,0
16.11.2019 19:00:00 4,4 2,1 0,7 8,7 13,3 4 2 7 4 NNW 1011,0 16 0 0,0
16.11.2019 18:00:00 5,7 2,2 2,5 8,6 13,3 3 1 8 4 NE 1010,8 20 0 0,0
16.11.2019 17:00:00 8,6 3,4 6,8 8,5 13,3 6 3 12 6 S 1010,3 20 40 0,0
16.11.2019 16:00:00 10,3 3,6 10,7 8,4 13,4 8 4 16 9 SSW 1010,1 20 54 0,0
16.11.2019 15:00:00 10,3 3,1 13,3 8,2 13,3 10 5 17 9 S 1010,0 20 60 0,0
16.11.2019 14:00:00 9,9 4,5 13,0 8,1 13,4 9 5 16 8 SSW 1010,3 20 60 0,0
16.11.2019 13:00:00 8,1 3,9 10,4 8,1 13,4 6 3 11 6 S 1011,1 20 58 0,0
16.11.2019 12:00:00 5,6 3,4 5,8 8,1 13,4 2 1 8 4 SSW 1012,0 11 17 0,0
16.11.2019 11:00:00 3,0 1,8 3,7 8,1 13,4 4 2 9 5 SE 1012,8 5 0 0,0
16.11.2019 10:00:00 2,0 1,0 2,3 8,1 13,5 0 0 5 3 N 1012,3 10 0 0,0
16.11.2019 09:00:00 1,6 0,6 1,7 8,1 13,5 0 0 5 3 N 1012,1 2,8 0 0,0
16.11.2019 08:00:00 1,2 0,2 1,2 8,1 13,5 0 0 3 1 N 1011,1 2,5 0 0,0
16.11.2019 07:00:00 1,0 -0,2 1,2 8,2 13,5 2 1 5 3 N 1010,1 9 0 0,0
16.11.2019 06:00:00 1,1 -0,1 1,3 8,2 13,6 3 1 7 4 NW 1009,2 6 0 0,0
16.11.2019 05:00:00 1,3 0,1 1,4 8,2 13,6 4 2 9 5 N 1008,2 10 0 0,0
16.11.2019 04:00:00 1,5 0,3 1,2 8,2 13,6 4 2 11 6 NNE 1008,0 8 0 0,0
16.11.2019 03:00:00 1,3 0,1 1,2 8,2 13,6 4 2 14 8 NNW 1007,4 14 0 0,0
16.11.2019 02:00:00 1,4 0,4 1,6 8,2 13,6 5 3 19 10 N 1006,8 10 0 0,0
16.11.2019 01:00:00 1,4 0,5 1,6 8,2 13,7 10 6 20 11 NNE 1006,5 7 0 0,0
16.11.2019 00:00:00 1,8 1,1 1,7 8,2 13,7 11 6 18 10 NNE 1005,8 7 0 0,0
15.11.2019 23:00:00 1,6 0,9 1,6 8,3 13,7 11 6 22 12 N 1005,1 3,9 0 0,0
15.11.2019 22:00:00 1,5 0,8 1,5 8,2 13,7 15 8 27 14 NNE 1004,5 2,3 0 0,0
15.11.2019 21:00:00 1,7 1,0 1,7 8,2 13,7 12 6 26 14 N 1004,0 2,7 0 0,0
15.11.2019 20:00:00 1,6 0,9 1,7 8,2 13,8 15 8 29 16 N 1003,8 1,3 0 0,0
15.11.2019 19:00:00 1,7 1,0 1,5 8,2 13,8 9 5 31 17 N 1003,1 2,9 0 0,0
15.11.2019 18:00:00 1,4 0,7 1,6 8,1 13,8 18 10 31 17 NNE 1002,6 0,7 0 0,0
15.11.2019 17:00:00 1,6 0,7 1,8 8,0 13,8 16 9 30 16 N 1002,1 0,5 0 0,0
15.11.2019 16:00:00 2,6 1,6 3,4 8,0 13,9 15 8 27 14 NNE 1001,9 0,9 16 0,0
15.11.2019 15:00:00 3,7 2,7 4,9 7,9 13,9 10 5 17 9 N 1001,7 4,8 0 0,0
15.11.2019 14:00:00 3,8 2,8 5,6 7,8 13,9 5 3 9 5 NNW 1001,7 13 0 0,0
15.11.2019 13:00:00 3,0 2,1 4,5 7,8 14,0 3 2 8 5 NNE 1002,2 12 0 0,0
15.11.2019 12:00:00 2,5 1,6 3,0 7,8 14,0 2 1 6 4 SE 1002,8 0,4 0 0,0
15.11.2019 11:00:00 2,1 1,2 2,8 7,8 14,0 3 2 7 4 E 1003,2 1,1 0 0,0
15.11.2019 10:00:00 1,9 1,0 2,8 7,8 14,1 2 1 7 4 S 1002,8 1,6 0 0,0
15.11.2019 09:00:00 2,0 1,1 1,7 7,8 14,1 0 0 4 2 N 1002,5 4,5 0 0,0
15.11.2019 08:00:00 1,6 0,7 1,2 7,9 14,2 0 0 6 3 N 1002,3 8 0 0,0
15.11.2019 07:00:00 1,4 0,5 0,1 7,9 14,2 0 0 5 3 N 1001,9 6 0 0,0
15.11.2019 06:00:00 0,5 -0,5 -1,3 7,9 14,2 0 0 4 2 N 1001,7 7 0 0,0
15.11.2019 05:00:00 0,7 -0,6 -0,6 7,9 14,3 3 1 4 2 S 1001,1 7 0 0,0
15.11.2019 04:00:00 1,5 0,3 1,0 8,0 14,3 2 1 4 2 WSW 1000,2 14 0 0,0
15.11.2019 03:00:00 1,4 0,2 0,9 8,0 14,3 0 0 4 2 N 999,4 20 0 0,0
15.11.2019 02:00:00 1,3 0,3 1,1 8,1 14,4 6 3 18 10 NNE 998,6 20 0 0,6
15.11.2019 01:00:00 1,3 0,3 1,0 8,3 14,4 13 7 20 11 NNE 997,9 11 0 2,0
15.11.2019 00:00:00 1,5 0,6 0,8 8,4 14,4 10 6 21 11 NNE 997,7 16 0 1,6
14.11.2019 23:00:00 1,1 0,2 0,3 8,5 14,5 9 5 27 15 N 997,8 15 0 2,7
14.11.2019 22:00:00 0,9 -0,1 0,1 8,7 14,6 5 3 23 13 N 998,7 18 0 2,4
14.11.2019 21:00:00 0,8 -0,1 0,1 8,8 14,6 14 8 23 12 NNE 998,0 15 0 5,6
14.11.2019 20:00:00 1,4 0,4 0,3 9,0 14,6 15 8 38 21 NNE 998,4 8 0 3,2
14.11.2019 19:00:00 1,5 0,5 1,2 9,1 14,7 15 8 35 19 N 998,2 8 0 4,0
14.11.2019 18:00:00 1,6 0,6 1,4 9,2 14,7 20 11 32 17 N 998,2 6 0 5,6
14.11.2019 17:00:00 2,2 0,9 1,9 9,4 14,8 14 8 42 23 N 997,8 7 0 2,4
14.11.2019 16:00:00 2,3 1,1 2,0 9,5 14,8 25 13 44 24 N 997,4 19 0 2,9
14.11.2019 15:00:00 2,0 0,8 2,0 9,6 14,8 23 13 44 24 N 998,9 9 0 4,8
14.11.2019 14:00:00 2,4 1,1 2,4 9,7 14,8 25 13 45 25 N 999,4 7 0 5,4
14.11.2019 13:00:00 4,6 3,1 4,5 9,9 14,8 24 13 39 21 N 999,9 6 0 5,8
14.11.2019 12:00:00 4,9 4,0 3,8 10,1 14,8 13 7 23 12 N 1000,8 4,2 0 7,0
14.11.2019 11:00:00 3,8 2,5 3,6 10,2 14,8 4 2 9 5 SSW 1001,2 1,8 0 9,3
14.11.2019 10:00:00 3,8 2,2 3,5 10,3 14,9 3 2 11 6 SW 1001,7 2,6 0 3,0
14.11.2019 09:00:00 3,7 1,7 3,4 10,3 14,9 2 1 6 3 NE 1002,4 8 0 1,0
14.11.2019 08:00:00 3,5 1,2 3,0 10,4 14,9 2 1 6 4 ENE 1002,8 19 0 0,2
14.11.2019 07:00:00 3,4 0,8 2,9 10,4 15,0 2 1 8 5 W 1003,6 18 0 0,0
14.11.2019 06:00:00 3,2 0,4 2,6 10,5 14,9 5 3 17 9 S 1004,3 20 0 0,0
14.11.2019 05:00:00 2,7 0,4 1,2 10,6 15,0 7 4 13 7 S 1004,2 20 0 0,0
14.11.2019 04:00:00 1,5 -0,1 0,2 10,7 15,0 0 0 8 4 N 1004,5 20 0 0,0
14.11.2019 03:00:00 1,0 -0,8 -0,5 10,7 14,9 3 2 6 3 ESE 1004,9 17 0 0,0
14.11.2019 02:00:00 1,2 -0,6 -1,6 10,8 15,0 0 0 6 3 N 1005,6 13 0 0,0
14.11.2019 01:00:00 0,9 -1,3 -1,9 10,9 15,0 0 0 5 3 N 1006,3 16 0 0,0
14.11.2019 00:00:00 2,5 -0,1 -0,4 11,0 15,0 2 1 8 5 SW 1006,9 11 0 0,0
13.11.2019 23:00:00 2,4 -0,4 -0,7 11,0 15,0 4 2 13 7 ESE 1007,7 20 0 0,0
13.11.2019 22:00:00 1,9 -1,2 -1,0 11,1 15,0 4 2 5 3 ENE 1008,2 20 0 0,0
13.11.2019 21:00:00 3,7 -0,1 0,3 11,1 15,0 0 0 8 4 N 1007,8 20 0 0,0
13.11.2019 20:00:00 4,0 0,1 0,2 11,1 15,1 4 2 10 5 ESE 1008,0 20 0 0,0
13.11.2019 19:00:00 5,7 0,5 2,5 11,1 15,1 4 2 21 11 S 1008,5 20 0 0,0
13.11.2019 18:00:00 8,4 0,4 6,3 11,0 15,1 10 5 27 15 N 1007,6 20 0 0,0
13.11.2019 17:00:00 9,2 0,6 8,2 11,0 15,1 17 9 38 20 N 1007,0 20 41 0,0
13.11.2019 16:00:00 9,9 1,0 11,9 10,9 15,1 21 11 45 25 N 1006,7 20 60 0,0
13.11.2019 15:00:00 10,1 0,9 12,5 10,9 15,1 23 13 48 26 N 1006,4 20 60 0,0
13.11.2019 14:00:00 9,9 1,5 12,8 10,9 15,1 23 12 46 25 N 1006,0 20 60 0,0
13.11.2019 13:00:00 9,6 1,2 11,6 10,8 15,1 29 16 61 33 NNE 1006,2 20 58 0,0
13.11.2019 12:00:00 9,4 2,5 10,8 10,8 15,2 24 13 51 27 NNE 1006,7 20 57 0,0
13.11.2019 11:00:00 8,7 2,9 9,9 10,9 15,2 20 11 41 22 NNE 1007,0 20 55 0,0
13.11.2019 10:00:00 7,9 2,4 9,5 10,9 15,2 24 13 42 23 NNE 1006,6 20 60 0,0
13.11.2019 09:00:00 7,5 2,4 6,3 11,0 15,2 19 10 36 19 NNE 1006,5 20 46 0,0
13.11.2019 08:00:00 7,2 1,7 6,3 11,0 15,2 11 6 23 12 N 1005,8 20 1 0,0
13.11.2019 07:00:00 7,1 2,0 6,2 11,1 15,2 7 4 24 13 N 1005,3 20 0 0,0
13.11.2019 06:00:00 6,8 1,9 1,3 11,2 15,3 13 7 29 15 N 1004,7 20 0 0,0
13.11.2019 05:00:00 4,9 1,4 2,1 11,3 15,2 2 1 14 8 E 1004,7 20 0 0,0
13.11.2019 04:00:00 5,7 1,8 3,0 11,3 15,2 8 4 16 9 NE 1004,5 20 0 0,0
13.11.2019 03:00:00 5,6 1,9 1,6 11,4 15,3 7 4 12 7 NNE 1004,5 20 0 0,0
13.11.2019 02:00:00 5,8 0,9 2,6 11,5 15,3 6 3 18 10 NNE 1004,5 20 0 0,0

tt = Température de l'air
td = dewpoint
tt 5cm = Température de l'air 5cm
tt -20cm = Température de l'air -20cm
tt -100cm = Température de l'air -100cm
ff = Vitesse du vent
fx = gusts
dd = Direction du vent
ppp = reduced air pressure
vv = visibility
sd = Ensoleillement
rr = Quantités de précipitations

stations d'obs. à proximité